CST,Max TemperatureF,Mean TemperatureF,Min TemperatureF,Max Dew PointF,MeanDew PointF,Min DewpointF,Max Humidity, Mean Humidity, Min Humidity, Max Sea Level PressureIn, Mean Sea Level PressureIn, Min Sea Level PressureIn, Max VisibilityMiles, Mean VisibilityMiles, Min VisibilityMiles, Max Wind SpeedMPH, Mean Wind SpeedMPH, Max Gust SpeedMPH,PrecipitationIn, CloudCover, Events, WindDirDegrees
2013-11-1,74,62,50,67,57,44,97,68,38,29.90,29.84,29.78,10,9,2,24,6,30,0.15,5,Rain,269
2013-11-2,69,57,45,47,42,33,100,64,28,30.16,30.00,29.89,10,10,10,21,6,26,0.00,1,,315
2013-11-3,66,52,38,42,38,32,92,60,28,30.31,30.23,30.15,10,10,10,12,2,33,0.00,0,,47
2013-11-4,68,56,44,44,38,34,71,50,29,30.40,30.33,30.28,10,10,10,16,7,25,0.00,2,,111
2013-11-5,68,59,50,45,38,34,52,46,40,30.40,30.34,30.28,10,10,10,14,7,20,0.00,4,,89
2013-11-6,74,64,54,61,54,40,80,66,51,30.25,30.17,30.08,10,10,5,15,7,21,0.01,6,Rain,136
2013-11-7,65,51,37,63,49,33,100,70,40,30.33,30.20,30.09,10,7,2,24,8,29,0.46,6,Rain,334
2013-11-8,63,48,33,38,32,28,96,62,27,30.40,30.32,30.27,10,10,10,13,2,15,0.00,2,,46
2013-11-9,61,52,43,45,35,27,71,52,32,30.34,30.29,30.25,10,10,10,12,3,16,0.00,6,,98
2013-11-10,73,60,46,46,42,36,86,57,28,30.35,30.29,30.25,10,10,10,13,3,20,T,3,,29
2013-11-11,73,58,43,41,31,16,89,51,12,30.31,30.24,30.18,10,10,9,9,2,14,0.00,1,,43
2013-11-12,57,44,30,43,29,14,82,57,31,30.55,30.36,30.20,10,10,8,25,11,33,0.00,2,,358
2013-11-13,53,39,24,23,15,5,74,44,14,30.65,30.55,30.49,10,10,10,14,4,17,0.00,0,,27
2013-11-14,59,44,28,32,20,14,69,43,17,30.49,30.39,30.26,10,10,10,10,2,15,0.00,2,,124
2013-11-15,58,54,49,53,47,29,93,68,42,30.24,30.17,30.11,10,8,3,12,4,14,0.39,7,Rain,78
2013-11-16,66,60,53,59,56,52,100,87,73,30.18,30.12,30.06,10,8,3,16,7,21,0.00,7,,116
2013-11-17,72,68,63,70,65,58,97,88,78,30.06,29.96,29.89,10,8,2,16,8,24,0.01,8,,185
2013-11-18,71,57,42,69,43,28,93,58,22,30.16,30.06,29.94,10,10,8,17,7,22,0.02,4,Rain,350
2013-11-19,59,48,36,34,27,19,76,50,23,30.22,30.16,30.12,10,10,10,16,6,23,0.00,3,,6
2013-11-20,64,52,40,40,34,28,60,48,36,30.27,30.21,30.14,10,10,10,15,7,23,0.00,2,,87
2013-11-21,66,60,53,55,48,39,78,67,55,30.33,30.28,30.24,10,10,10,12,6,18,0.00,7,,112
2013-11-22,65,61,57,61,57,52,100,86,72,30.31,30.25,30.19,10,7,2,13,4,16,0.01,8,Rain,47
2013-11-23,57,47,36,54,40,20,100,76,51,30.40,30.31,30.23,10,8,2,21,11,23,T,6,,359
2013-11-24,46,36,26,21,13,6,69,45,21,30.56,30.46,30.41,10,10,10,17,9,23,0.00,1,,24
2013-11-25,46,39,32,36,25,10,92,63,33,30.41,30.28,30.09,10,8,2,14,7,20,0.84,7,Rain,69
2013-11-26,47,42,37,45,39,35,100,93,85,30.07,29.92,29.77,10,4,2,22,12,30,2.23,8,Rain,27
2013-11-27,40,31,22,32,20,14,92,66,40,30.40,30.17,29.91,10,10,10,25,12,36,T,3,Rain,335
2013-11-28,48,33,18,23,16,10,84,53,21,30.51,30.47,30.40,10,10,10,8,1,12,0.00,2,,323
2013-11-29,60,42,24,28,22,15,88,53,18,30.58,30.52,30.47,10,10,10,8,1,10,0.00,0,,359
2013-11-30,59,46,32,32,26,19,82,53,23,30.53,30.42,30.31,10,10,10,12,3,28,0.00,4,,94